Location name: Cyamutara | Identifier : 70017 | Type : Hydrology Station

  • Parameter : Stage
  • Unit : m
  • Start time : 1968-01-01T12:00:00.0000000+02:00
  • End time : 2000-04-30T18:00:00.0000000+02:00
Date Parameter Unit Value
1969-12-02T00:00:00.0000000+02:00 Discharge m^3/s 1
1969-12-02T00:00:00.0000000+02:00 Stage m 0.589999974
1970-01-06T00:00:00.0000000+02:00 Discharge m^3/s 2
1970-01-06T00:00:00.0000000+02:00 Stage m 1.059999943
1970-01-09T00:00:00.0000000+02:00 Discharge m^3/s 4
1970-01-09T00:00:00.0000000+02:00 Stage m 1.480000019
1970-04-01T00:00:00.0000000+02:00 Discharge m^3/s 5
1970-04-01T00:00:00.0000000+02:00 Stage m 1.370000005
1970-04-01T00:00:00.0000000+02:00 Discharge m^3/s 5.679999828
1970-04-01T00:00:00.0000000+02:00 Stage m 1.580000043
1970-04-06T00:00:00.0000000+02:00 Discharge m^3/s 1
1970-04-06T00:00:00.0000000+02:00 Stage m 0.790000021
1970-04-06T00:00:00.0000000+02:00 Discharge m^3/s 12.5
1970-04-06T00:00:00.0000000+02:00 Stage m 2.380000114
1970-04-06T00:00:00.0000000+02:00 Discharge m^3/s 1.659999967
1970-04-06T00:00:00.0000000+02:00 Stage m 0.790000021
1970-04-12T00:00:00.0000000+02:00 Discharge m^3/s 13
1970-04-12T00:00:00.0000000+02:00 Stage m 2.109999895
1970-04-12T00:00:00.0000000+02:00 Discharge m^3/s 32.90000153
1970-04-12T00:00:00.0000000+02:00 Stage m 3.680000067
1970-04-12T00:00:00.0000000+02:00 Discharge m^3/s 27
1970-04-12T00:00:00.0000000+02:00 Stage m 3.480000019
1970-04-12T00:00:00.0000000+02:00 Discharge m^3/s 13.60000038
1970-04-12T00:00:00.0000000+02:00 Stage m 2.660000086
1970-04-23T00:00:00.0000000+02:00 Discharge m^3/s 5
1970-04-23T00:00:00.0000000+02:00 Stage m 1.580000043
1970-04-23T00:00:00.0000000+02:00 Discharge m^3/s 22.79999924
1970-04-23T00:00:00.0000000+02:00 Stage m 3.279999971
1970-04-23T00:00:00.0000000+02:00 Discharge m^3/s 5.679999828
1970-04-23T00:00:00.0000000+02:00 Stage m 1.580000043
1970-04-25T00:00:00.0000000+02:00 Discharge m^3/s 12
1970-04-25T00:00:00.0000000+02:00 Stage m 2.380000114
1970-04-25T00:00:00.0000000+02:00 Discharge m^3/s 12.5
1970-04-25T00:00:00.0000000+02:00 Stage m 2.380000114
1970-04-26T00:00:00.0000000+02:00 Discharge m^3/s 16
1970-04-26T00:00:00.0000000+02:00 Stage m 3.480000019
1970-04-26T00:00:00.0000000+02:00 Discharge m^3/s 32.90000153
1970-04-26T00:00:00.0000000+02:00 Stage m 3.680000067
1970-04-26T00:00:00.0000000+02:00 Discharge m^3/s 27
1970-04-26T00:00:00.0000000+02:00 Stage m 3.480000019
1970-04-26T00:00:00.0000000+02:00 Discharge m^3/s 19.60000038
1970-04-26T00:00:00.0000000+02:00 Stage m 3.079999924
1970-04-26T00:00:00.0000000+02:00 Discharge m^3/s 16.60000038
1970-04-26T00:00:00.0000000+02:00 Stage m 2.849999905
1970-04-26T00:00:00.0000000+02:00 Discharge m^3/s 16.60000038
1970-04-26T00:00:00.0000000+02:00 Stage m 2.849999905
1970-07-25T00:00:00.0000000+02:00 Discharge m^3/s 0
1970-07-25T00:00:00.0000000+02:00 Stage m 0.620000005
1970-07-26T00:00:00.0000000+02:00 Discharge m^3/s 22
1970-07-26T00:00:00.0000000+02:00 Stage m 3.279999971
1970-08-11T00:00:00.0000000+02:00 Discharge m^3/s 1
1970-08-11T00:00:00.0000000+02:00 Stage m 0.689999998
1970-11-08T00:00:00.0000000+02:00 Discharge m^3/s 2
1970-11-08T00:00:00.0000000+02:00 Stage m 0.899999976
1970-12-31T00:00:00.0000000+02:00 Discharge m^3/s 1
1970-12-31T00:00:00.0000000+02:00 Stage m 0.680000007
1971-02-18T00:00:00.0000000+02:00 Discharge m^3/s 0
1971-02-18T00:00:00.0000000+02:00 Stage m 0.649999976
1971-03-04T00:00:00.0000000+02:00 Discharge m^3/s 0
1971-03-04T00:00:00.0000000+02:00 Stage m 0.620000005
1971-03-22T00:00:00.0000000+02:00 Discharge m^3/s 0
1971-03-22T00:00:00.0000000+02:00 Stage m 0.579999983
1971-04-07T00:00:00.0000000+02:00 Discharge m^3/s 4
1971-04-07T00:00:00.0000000+02:00 Stage m 0.939999998
1971-04-14T00:00:00.0000000+02:00 Discharge m^3/s 3
1971-04-14T00:00:00.0000000+02:00 Stage m 1
1971-04-15T00:00:00.0000000+02:00 Discharge m^3/s 8
1971-04-15T00:00:00.0000000+02:00 Stage m 1.75
1971-04-16T00:00:00.0000000+02:00 Discharge m^3/s 7
1971-04-16T00:00:00.0000000+02:00 Stage m 1.230000019
1971-04-29T00:00:00.0000000+02:00 Discharge m^3/s 6
1971-04-29T00:00:00.0000000+02:00 Stage m 1.139999986
1971-05-17T00:00:00.0000000+02:00 Discharge m^3/s 26
1971-05-17T00:00:00.0000000+02:00 Stage m 2.190000057
1971-06-07T00:00:00.0000000+02:00 Discharge m^3/s 1
1971-06-07T00:00:00.0000000+02:00 Stage m 0.680000007
1971-06-27T00:00:00.0000000+02:00 Discharge m^3/s 1
1971-06-27T00:00:00.0000000+02:00 Stage m 0.620000005
1971-07-07T00:00:00.0000000+02:00 Discharge m^3/s 1
1971-07-07T00:00:00.0000000+02:00 Stage m 0.610000014
1971-07-19T00:00:00.0000000+02:00 Discharge m^3/s 1
1971-07-19T00:00:00.0000000+02:00 Stage m 0.629999995
1971-07-26T00:00:00.0000000+02:00 Discharge m^3/s 1
1971-07-26T00:00:00.0000000+02:00 Stage m 0.600000024
1971-08-06T00:00:00.0000000+02:00 Discharge m^3/s 1
1971-08-06T00:00:00.0000000+02:00 Stage m 0.620000005
1971-08-09T00:00:00.0000000+02:00 Discharge m^3/s 1
1971-08-09T00:00:00.0000000+02:00 Stage m 0.579999983
1971-08-16T00:00:00.0000000+02:00 Discharge m^3/s 1
1971-08-16T00:00:00.0000000+02:00 Stage m 0.579999983
1971-08-23T00:00:00.0000000+02:00 Discharge m^3/s 1
1971-08-23T00:00:00.0000000+02:00 Stage m 0.589999974
1971-08-30T00:00:00.0000000+02:00 Discharge m^3/s 1
1971-08-30T00:00:00.0000000+02:00 Stage m 0.600000024
1971-09-13T00:00:00.0000000+02:00 Discharge m^3/s 1
1971-09-13T00:00:00.0000000+02:00 Stage m 0.579999983
1971-09-20T00:00:00.0000000+02:00 Discharge m^3/s 1
1971-09-20T00:00:00.0000000+02:00 Stage m 0.569999993
1971-09-27T00:00:00.0000000+02:00 Discharge m^3/s 1
1971-09-27T00:00:00.0000000+02:00 Stage m 0.600000024
1971-10-04T00:00:00.0000000+02:00 Discharge m^3/s 1
1971-10-04T00:00:00.0000000+02:00 Stage m 0.649999976
1971-10-25T00:00:00.0000000+02:00 Discharge m^3/s 1
1971-10-25T00:00:00.0000000+02:00 Stage m 0.579999983
1971-11-06T00:00:00.0000000+02:00 Discharge m^3/s 1
1971-11-06T00:00:00.0000000+02:00 Stage m 0.579999983
1972-07-08T00:00:00.0000000+02:00 Discharge m^3/s 1
1972-07-08T00:00:00.0000000+02:00 Stage m 0.569999993
1972-07-21T00:00:00.0000000+02:00 Discharge m^3/s 1
1972-07-21T00:00:00.0000000+02:00 Stage m 0.529999971
1972-08-12T00:00:00.0000000+02:00 Discharge m^3/s 1
1972-08-12T00:00:00.0000000+02:00 Stage m 0.5
1972-08-28T00:00:00.0000000+02:00 Discharge m^3/s 1
1972-08-28T00:00:00.0000000+02:00 Stage m 0.560000002
1972-09-09T00:00:00.0000000+02:00 Discharge m^3/s 1
1972-09-09T00:00:00.0000000+02:00 Stage m 0.569999993
1972-10-18T00:00:00.0000000+02:00 Discharge m^3/s 1
1972-10-18T00:00:00.0000000+02:00 Stage m 0.5
1973-01-26T00:00:00.0000000+02:00 Discharge m^3/s 1
1973-01-26T00:00:00.0000000+02:00 Stage m 0.479999989
1973-08-12T00:00:00.0000000+02:00 Discharge m^3/s 0
1973-08-12T00:00:00.0000000+02:00 Stage m 0.819999993
1981-03-05T00:00:00.0000000+02:00 Discharge m^3/s 0
1981-03-05T00:00:00.0000000+02:00 Stage m 0.75999999
1996-08-08T00:00:00.0000000+02:00 Discharge m^3/s 0
1996-08-08T00:00:00.0000000+02:00 Stage m 0.689999998
1996-10-10T00:00:00.0000000+02:00 Discharge m^3/s 1
1996-10-10T00:00:00.0000000+02:00 Stage m 0.689999998
1996-12-12T00:00:00.0000000+02:00 Discharge m^3/s 0
1996-12-12T00:00:00.0000000+02:00 Stage m 0.639999986
1998-04-09T00:00:00.0000000+02:00 Discharge m^3/s 2
1998-04-09T00:00:00.0000000+02:00 Stage m 0.75999999